| time (UTC) | temp F | wind direction | speed MPH | gust MPH | rain 1hr in | rain 24hr in | rain mn in | humidity % | barometer mb |
| 20260904123027 | 63 | 193 | 0.0 | 0.0 | 0.01 | 0.01 | 0.01 | 95 | 1012.7 |
| 20260904121527 | 62 | 193 | 0.0 | 3.0 | 0.01 | 0.01 | 0.01 | 95 | 1012.8 |
| 20260904120026 | 62 | 241 | 0.0 | 0.0 | 0.00 | 0.00 | 0.00 | 94 | 1012.8 |
| 20260904114525 | 62 | 241 | 0.0 | 3.0 | 0.00 | 0.00 | 0.00 | 94 | 1012.7 |
| 20260904113032 | 63 | 241 | 0.0 | 2.0 | 0.00 | 0.00 | 0.00 | 94 | 1012.7 |
| 20260904111536 | 63 | 128 | 0.0 | 0.0 | 0.00 | 0.00 | 0.00 | 94 | 1012.6 |
| 20260904110023 | 63 | 128 | 0.0 | 0.0 | 0.00 | 0.00 | 0.00 | 94 | 1012.7 |
| 20260904104522 | 63 | 128 | 0.0 | 0.0 | 0.00 | 0.00 | 0.00 | 94 | 1012.6 |
| 20260904103023 | 62 | 128 | 0.0 | 0.0 | 0.00 | 0.00 | 0.00 | 94 | 1012.7 |
| 20260904101521 | 62 | 128 | 0.0 | 0.0 | 0.00 | 0.00 | 0.00 | 94 | 1012.6 |
| 20260904100020 | 63 | 128 | 0.0 | 4.0 | 0.00 | 0.00 | 0.00 | 94 | 1012.5 |
| 20260904094519 | 63 | 117 | 2.0 | 3.0 | 0.00 | 0.00 | 0.00 | 94 | 1012.6 |
| 20260904093021 | 63 | 117 | 1.0 | 3.0 | 0.00 | 0.00 | 0.00 | 93 | 1012.6 |
| 20260904091518 | 63 | 117 | 0.0 | 4.0 | 0.00 | 0.00 | 0.00 | 93 | 1012.5 |
| 20260904090017 | 63 | 117 | 2.0 | 6.0 | 0.00 | 0.00 | 0.00 | 94 | 1012.6 |
| 20260904084516 | 63 | 78 | 0.0 | 2.0 | 0.00 | 0.00 | 0.00 | 93 | 1012.7 |
| 20260904083015 | 62 | 78 | 1.0 | 3.0 | 0.00 | 0.00 | 0.00 | 93 | 1012.7 |
| 20260904081513 | 62 | 78 | 0.0 | 0.0 | 0.00 | 0.00 | 0.00 | 93 | 1012.8 |
| 20260904080012 | 62 | 78 | 0.0 | 0.0 | 0.00 | 0.00 | 0.00 | 93 | 1013.0 |
| 20260904074512 | 62 | 78 | 0.0 | 0.0 | 0.00 | 0.00 | 0.00 | 93 | 1012.9 |
| 20260904073012 | 62 | 78 | 0.0 | 1.0 | 0.00 | 0.00 | 0.00 | 93 | 1012.9 |
| 20260904071512 | 62 | 78 | 1.0 | 2.0 | 0.00 | 0.00 | 0.00 | 94 | 1013.0 |
| 20260904070007 | 62 | 78 | 1.0 | 4.0 | 0.00 | 0.00 | 0.00 | 94 | 1013.0 |
| 20260904064507 | 62 | 98 | 1.0 | 5.0 | 0.00 | 0.00 | 0.00 | 93 | 1013.1 |
| 20260904063007 | 62 | 119 | 2.0 | 6.0 | 0.00 | 0.00 | 0.00 | 93 | 1013.0 |
| 20260904061518 | 62 | 119 | 1.0 | 7.0 | 0.00 | 0.00 | 0.00 | 93 | 1013.0 |
| 20260904060006 | 62 | 136 | 3.0 | 7.0 | 0.00 | 0.00 | 0.00 | 93 | 1013.0 |
| 20260904054511 | 62 | 92 | 2.0 | 5.0 | 0.00 | 0.00 | 0.00 | 93 | 1013.0 |
| 20260904053005 | 62 | 71 | 1.0 | 7.0 | 0.00 | 0.00 | 0.00 | 92 | 1013.0 |
| 20260904051505 | 62 | 56 | 4.0 | 9.0 | 0.00 | 0.00 | 0.00 | 93 | 1013.1 |
| 20260904050003 | 62 | 61 | 2.0 | 7.0 | 0.00 | 0.00 | 0.00 | 93 | 1013.1 |
| 20260904044503 | 62 | 107 | 1.0 | 6.0 | 0.00 | 0.00 | 0.00 | 93 | 1013.1 |
| 20260904043002 | 62 | 107 | 2.0 | 4.0 | 0.00 | 0.00 | 0.00 | 93 | 1013.0 |
| 20260904041503 | 62 | 102 | 2.0 | 6.0 | 0.00 | 0.00 | 0.00 | 93 | 1012.9 |
| 20260904040001 | 62 | 122 | 2.0 | 7.0 | 0.00 | 0.00 | 0.00 | 92 | 1012.8 |
| 20260904034600 | 62 | 92 | 3.0 | 8.0 | 0.00 | 0.00 | 0.00 | 92 | 1012.7 |
| 20260904033100 | 62 | 103 | 3.0 | 8.0 | 0.00 | 0.00 | 0.00 | 92 | 1012.7 |
| 20260904031600 | 62 | 101 | 4.0 | 9.0 | 0.00 | 0.00 | 0.00 | 92 | 1012.6 |
| 20260904030058 | 62 | 95 | 5.0 | 9.0 | 0.00 | 0.00 | 0.00 | 91 | 1012.6 |
| 20260904024558 | 62 | 71 | 5.0 | 11.0 | 0.00 | 0.00 | 0.00 | 91 | 1012.5 |
| 20260904023058 | 62 | 88 | 5.0 | 10.0 | 0.00 | 0.00 | 0.00 | 91 | 1012.4 |
| 20260904021557 | 63 | 90 | 3.0 | 9.0 | 0.00 | 0.00 | 0.00 | 90 | 1012.5 |
| 20260904020058 | 63 | 87 | 4.0 | 11.0 | 0.00 | 0.00 | 0.00 | 90 | 1012.5 |
| 20260904014606 | 63 | 63 | 5.0 | 12.0 | 0.00 | 0.00 | 0.00 | 88 | 1012.6 |
| 20260904013053 | 64 | 76 | 5.0 | 11.0 | 0.00 | 0.00 | 0.00 | 87 | 1012.7 |
| 20260904011552 | 64 | 109 | 5.0 | 12.0 | 0.00 | 0.00 | 0.00 | 87 | 1012.8 |
| 20260904010105 | 65 | 52 | 6.0 | 11.0 | 0.00 | 0.00 | 0.00 | 86 | 1012.9 |
| 20260904004549 | 65 | 101 | 5.0 | 12.0 | 0.00 | 0.00 | 0.00 | 85 | 1013.0 |
| 20260904003049 | 66 | 58 | 7.0 | 13.0 | 0.00 | 0.00 | 0.00 | 84 | 1013.0 |
| 20260904001549 | 66 | 115 | 6.0 | 16.0 | 0.00 | 0.00 | 0.00 | 83 | 1013.0 |
| 20260904000054 | 66 | 43 | 4.0 | 13.0 | 0.00 | 0.00 | 0.00 | 84 | 1013.0 |
| 20260903234546 | 66 | 74 | 6.0 | 14.0 | 0.00 | 0.00 | 0.00 | 83 | 1013.0 |
| 20260903233044 | 66 | 44 | 9.0 | 15.0 | 0.00 | 0.00 | 0.00 | 83 | 1013.1 |
| 20260903231543 | 66 | 103 | 6.0 | 14.0 | 0.00 | 0.00 | 0.00 | 83 | 1013.2 |
| 20260903230041 | 66 | 63 | 9.0 | 16.0 | 0.00 | 0.00 | 0.00 | 82 | 1013.4 |
| 20260903224539 | 66 | 95 | 8.0 | 17.0 | 0.00 | 0.00 | 0.00 | 83 | 1013.6 |
| 20260903223040 | 66 | 95 | 7.0 | 17.0 | 0.00 | 0.00 | 0.00 | 82 | 1013.7 |
| 20260903221537 | 67 | 88 | 5.0 | 16.0 | 0.00 | 0.00 | 0.00 | 83 | 1013.9 |
| 20260903220035 | 67 | 108 | 11.0 | 17.0 | 0.00 | 0.00 | 0.00 | 80 | 1014.0 |
| 20260903214535 | 67 | 66 | 8.0 | 14.0 | 0.00 | 0.00 | 0.00 | 81 | 1014.2 |
| 20260903213033 | 66 | 61 | 7.0 | 17.0 | 0.00 | 0.00 | 0.00 | 81 | 1014.2 |
| 20260903211533 | 66 | 119 | 9.0 | 19.0 | 0.00 | 0.00 | 0.00 | 81 | 1014.2 |
| 20260903210035 | 67 | 80 | 10.0 | 18.0 | 0.00 | 0.00 | 0.00 | 80 | 1014.2 |
| 20260903204536 | 67 | 65 | 7.0 | 15.0 | 0.00 | 0.00 | 0.00 | 81 | 1014.3 |
| 20260903203036 | 66 | 115 | 8.0 | 16.0 | 0.00 | 0.00 | 0.00 | 81 | 1014.3 |
| 20260903201530 | 66 | 88 | 9.0 | 16.0 | 0.00 | 0.00 | 0.00 | 81 | 1014.3 |
| 20260903200028 | 67 | 64 | 7.0 | 16.0 | 0.00 | 0.00 | 0.00 | 79 | 1014.4 |
| 20260903194527 | 66 | 89 | 8.0 | 17.0 | 0.00 | 0.00 | 0.00 | 79 | 1014.5 |
| 20260903193025 | 66 | 91 | 9.0 | 16.0 | 0.00 | 0.00 | 0.00 | 80 | 1014.6 |
| 20260903191524 | 66 | 88 | 7.0 | 15.0 | 0.00 | 0.00 | 0.00 | 80 | 1014.7 |
| 20260903190021 | 66 | 72 | 8.0 | 17.0 | 0.00 | 0.00 | 0.00 | 79 | 1014.9 |
| 20260903184521 | 65 | 123 | 10.0 | 17.0 | 0.00 | 0.00 | 0.00 | 80 | 1015.1 |
| 20260903183019 | 65 | 116 | 10.0 | 16.0 | 0.00 | 0.00 | 0.00 | 80 | 1015.2 |
| 20260903181517 | 65 | 112 | 11.0 | 19.0 | 0.00 | 0.00 | 0.00 | 81 | 1015.2 |
| 20260903180024 | 64 | 121 | 9.0 | 16.0 | 0.00 | 0.00 | 0.00 | 82 | 1015.1 |
| 20260903174520 | 65 | 77 | 8.0 | 13.0 | 0.00 | 0.00 | 0.00 | 81 | 1015.1 |
| 20260903173014 | 65 | 110 | 7.0 | 13.0 | 0.00 | 0.00 | 0.00 | 80 | 1015.1 |
| 20260903171513 | 64 | 96 | 6.0 | 11.0 | 0.00 | 0.00 | 0.00 | 80 | 1015.0 |
| 20260903170010 | 64 | 105 | 7.0 | 11.0 | 0.00 | 0.00 | 0.00 | 82 | 1015.2 |
| 20260903164507 | 63 | 69 | 6.0 | 10.0 | 0.00 | 0.00 | 0.00 | 83 | 1015.1 |
| 20260903163005 | 62 | 90 | 7.0 | 11.0 | 0.00 | 0.00 | 0.00 | 85 | 1015.3 |
| 20260903161504 | 62 | 100 | 5.0 | 9.0 | 0.00 | 0.00 | 0.00 | 86 | 1015.4 |
| 20260903160109 | 61 | 92 | 4.0 | 9.0 | 0.00 | 0.00 | 0.00 | 87 | 1015.5 |
| 20260903154603 | 60 | 98 | 6.0 | 10.0 | 0.00 | 0.00 | 0.00 | 88 | 1015.6 |
| 20260903153056 | 60 | 96 | 6.0 | 9.0 | 0.00 | 0.00 | 0.00 | 90 | 1015.6 |
| 20260903151551 | 59 | 145 | 5.0 | 8.0 | 0.00 | 0.00 | 0.00 | 91 | 1015.7 |
| 20260903150103 | 59 | 90 | 2.0 | 7.0 | 0.00 | 0.00 | 0.00 | 92 | 1015.8 |
| 20260903144555 | 58 | 128 | 2.0 | 6.0 | 0.00 | 0.00 | 0.00 | 92 | 1015.8 |
| 20260903143049 | 58 | 64 | 1.0 | 4.0 | 0.00 | 0.00 | 0.00 | 93 | 1015.7 |
| 20260903141547 | 57 | 80 | 2.0 | 4.0 | 0.00 | 0.00 | 0.00 | 92 | 1015.5 |
| 20260903140047 | 57 | 76 | 1.0 | 4.0 | 0.00 | 0.00 | 0.00 | 92 | 1015.3 |
| 20260903134546 | 58 | 44 | 1.0 | 4.0 | 0.00 | 0.00 | 0.00 | 92 | 1015.3 |
| 20260903133044 | 58 | 193 | 1.0 | 3.0 | 0.00 | 0.00 | 0.00 | 91 | 1015.3 |
| 20260903131542 | 58 | 193 | 1.0 | 3.0 | 0.00 | 0.00 | 0.00 | 91 | 1015.2 |
| 20260903130042 | 59 | 193 | 1.0 | 4.0 | 0.00 | 0.00 | 0.00 | 91 | 1015.1 |
| 20260903124550 | 59 | 193 | 0.0 | 6.0 | 0.00 | 0.00 | 0.00 | 91 | 1015.1 |